Flag for U.S.A. Weather past 2 weeks in Anchorage, Alaska, U.S.A.

Now
39 °F

Overcast.


Feels Like: 36 °F
Forecast: 33 / 47 °F
Wind: 5 mph from Southwest

Location: Lake Hood Seaplane

Current Time: Apr 1, 2015 at 2:42:08 PM

Latest Report: Apr 1, 2015 at 1:53 PM


Visibility: 10 mi

Pressure: 29.84 "Hg

Humidity: 73%

Dew point: 31 °F

Location of AnchorageLocation

Historic Weather in Anchorage — Graph

°F

Anchorage temperature yesterday

Maximum temperature yesterday: 43 °F (at 3:53 PM)
Minimum temperature yesterday: 30 °F (at 3:53 AM)
Average temperature yesterday: 37 °F

Past Weeks' High & Low Weather Summary

 TemperatureHumidityPressure
High49 °F (Mar 30, 4:53 PM)100% (Mar 18, 1:53 AM)30.02 "Hg (Mar 18, 1:53 AM)
Low1 °F (Mar 18, 1:53 AM)31% (Mar 24, 5:53 PM)29.32 "Hg (Mar 26, 7:53 AM)
Average36 °F64%29.68 "Hg
* Reported Mar 17 12:53 PM — Apr 1 12:53 PM, Anchorage, Weather by CustomWeather, © 2015

Note: Actual official high and low records may vary slightly from our data, if they occured in-between our weather recording intervals... More about our weather records

Advertising

Anchorage weather history for previous 24 hours

 ConditionsComfort  
Time TempWeatherWind HumidityBarometerVisibility
12:53 PM
Wed, Apr 1
37 °FOvercast.3 mph79%29.83 "Hg10 mi
11:53 AM39 °FCloudy.5 mph70%29.82 "Hg10 mi
10:53 AM36 °FPartly sunny.No wind79%29.80 "Hg10 mi
9:53 AM36 °FScattered clouds.7 mph79%29.78 "Hg10 mi
8:53 AM34 °FScattered clouds.3 mph85%29.77 "Hg10 mi
7:53 AM33 °FOvercast.No wind88%29.77 "Hg10 mi
6:53 AM32 °FOvercast.3 mph92%29.77 "Hg10 mi
5:53 AM33 °FMostly cloudy.5 mph88%29.77 "Hg10 mi
4:53 AM32 °FPassing clouds.No wind92%29.76 "Hg10 mi
3:53 AM33 °FClear.3 mph88%29.76 "Hg10 mi
2:53 AM34 °FClear.No wind82%29.75 "Hg10 mi
1:53 AM35 °FPassing clouds.No wind82%29.75 "Hg10 mi
12:53 AM36 °FPassing clouds.No wind79%29.73 "Hg10 mi
11:53 PM
Tue, Mar 31
37 °FMostly cloudy.3 mph82%29.72 "Hg10 mi
10:53 PM38 °FOvercast.No wind79%29.71 "Hg10 mi
9:53 PM41 °FPassing clouds.9 mph67%29.70 "Hg10 mi
8:53 PM40 °FPassing clouds.No wind77%29.68 "Hg10 mi
7:53 PM40 °FLight rain. Mostly cloudy.3 mph77%29.67 "Hg10 mi
6:53 PM43 °FMore clouds than sun.No wind53%29.65 "Hg10 mi
5:53 PM43 °FMore clouds than sun.3 mph53%29.65 "Hg10 mi
4:53 PM43 °FOvercast.No wind53%29.64 "Hg10 mi
3:53 PM43 °FOvercast.No wind51%29.64 "Hg10 mi
2:53 PM42 °FPartly sunny.No wind51%29.63 "Hg10 mi
Weather by CustomWeather, © 2015

See weather overviewHow to use our weather pages